This is the latest recevied weather packets stored in our database for station/object G4GVZ-1. If no packets are shown the sender has not sent any weather packets the latest 10 day(s).
| Time | Temp. | Humidity | Pressure | Rain* | Wind** | Luminosity | Snow |
|---|---|---|---|---|---|---|---|
| 1788140750 | 56° F | 94% | 752.9 mmHg | 0 in | - | - | - |
| 1788139850 | 56° F | 94% | 752.8 mmHg | 0 in | - | - | - |
| 1788138949 | 56° F | 93% | 752.8 mmHg | 0 in | - | - | - |
| 1788138049 | 56° F | 94% | 752.8 mmHg | 0 in | - | - | - |
| 1788137149 | 56° F | 93% | 752.8 mmHg | 0 in | - | - | - |
| 1788136251 | 56° F | 92% | 752.5 mmHg | 0 in | - | - | - |
| 1788135351 | 56° F | 91% | 752.5 mmHg | 0 in | - | - | - |
| 1788134450 | 59° F | 85% | 752.8 mmHg | 0 in | - | - | - |
| 1788133550 | 61° F | 88% | 752.2 mmHg | 0 in | - | - | - |
| 1788132650 | 61° F | 88% | 752.3 mmHg | 0 in | - | - | - |
| 1788131752 | 61° F | 87% | 752.2 mmHg | 0 in | - | - | - |
| 1788130852 | 60° F | 88% | 752.3 mmHg | 0 in | - | - | - |
| 1788129952 | 61° F | 88% | 752.3 mmHg | 0 in | - | - | - |
| 1788129051 | 61° F | 87% | 752.5 mmHg | 0 in | - | - | - |
| 1788128151 | 61° F | 86% | 752.6 mmHg | 0 in | - | - | - |
| 1788127251 | 61° F | 85% | 752.5 mmHg | 0 in | - | - | - |
| 1788126351 | 61° F | 85% | 752.6 mmHg | 0 in | - | - | - |
| 1788125451 | 60° F | 85% | 752.7 mmHg | 0 in | - | - | - |
| 1788124550 | 60° F | 85% | 752.7 mmHg | 0 in | - | - | - |
| 1788123650 | 61° F | 87% | 752.6 mmHg | 0 in | - | - | - |
| 1788122750 | 60° F | 87% | 752.6 mmHg | 0 in | - | - | - |
| 1788121852 | 61° F | 86% | 752.8 mmHg | 0 in | - | - | - |
| 1788120952 | 61° F | 85% | 752.9 mmHg | 0 in | - | - | - |
| 1788120052 | 62° F | 87% | 753 mmHg | 0 in | - | - | - |
| 1788119151 | 63° F | 86% | 752.8 mmHg | 0 in | - | - | - |
* Rain latest hour (hover to see other rain measurements)
** Current wind speed in m/s (hover to see current wind gust speed)